ATLAS 5 CENTAUR DEB, 43985

Orbit data source: Space-Track

ATLAS 5 CENTAUR DEB, 43985 is space debris in HEO originally from a launch on Wed, 17 Sep 2014 UTC launched from the Air Force Eastern Test Range (AFETR). Debris objects in space refer to the collection of defunct objects orbiting the Earth. Examples of debris include non-operational satellites, rocket bodies, and fragments generated from explosions, collisions, or faulty payload assembly.

Loading next visibility...
ATLAS 5 CENTAUR DEB details
Identifier
43985, 2014-055AQ
Orbit
HEO
Last TLE update2 days ago
Origin
Flag of USULA (US)
ManufacturerUnknown
MissionSpacecraft
Bus & MotorUnknown
MassUnknown
Launch date (UTC)
2014-09-17 (10 years ago)
Launch vehicleUnknown
Launch site
Air Force Eastern Test Range (AFETR)
Object type
Payload
Rocket body
Debris
Shape & HBRUnknown
Radar Cross SectionSmall (<0.1 m²)

Expand to show TLE details & history

TLE from 2 days ago
0 ATLAS 5 CENTAUR DEB
1 43985U 14055AQ  24360.07296846 -.00000039  00000-0  00000-0 0  9994
2 43985  19.7085 222.6072 4826448  23.8527 352.7047  1.76855875  2502
Epoch: 2024-12-25T01:45Z
Definitive object data (Epoch: 2024-12-25T01:45:04.474Z)
Latitude-0.00006°
Longitude102.30484°
Altitude8,972.203 km
Speed6.175 km/s
True Right ascension14h 50m 34s
True Declination0° 00' 00"
Sunlit
Object was in daylight at TLE epoch
Visualization TLE readout
Latitude7.8966°
Longitude-100.62108°
Altitude26,270.221 km
Speed3.259 km/s
Apparent Right ascension01h 51m 53s
Apparent Declination0° 46' 09"
Sunlit
Object is in daylight
Visualization observer readout
Local Sidereal Time21:06:13
Azimuth101.577° ESE
Elevation14.655°
Doppler factor1
Orbital elements
Apogee altitude36,449.213 km
Perigee altitude8,566.071 km
Semi-major axis28,885.779 km
Eccentricity0.4826448
Inclination19.7085°
RAAN222.6072°
Arg. of periapsis23.8527°
True anomaly336.56115°
Mean anomaly352.7047°
Eccentric anomaly346.02767°
Mean motion0.4421 °/min
BSTARUnknown
Orbital period814.3 mins
Loading maneuver chart data...

ATLAS 5 CENTAUR DEB Visibility forecast

Observer location: undefined°, undefined

Span
Click to sort rows by Start time (UTC) header in descending order
Start Az.
Max El. time (UTC)
Max El. Az.
Max El.
End time (UTC)
End Az.
430 mins2024-12-26 21:43:11.314Z101.597° ESE2024-12-26 21:43:11.314Z101.597° ESE14.19°2024-12-27 04:53:11.314Z137.535° SSE
|